Regional Weather Roundup
Issued by NWS Columbia, SC

Home | Current Version | Previous Version | Text Only | Print | Product List | Glossary On
Versions: 1 2 3 4 5 6 7 8 9 10 11 12 13 14 15 16 17 18 19 20 21 22 23 24 25 26 27 28 29 30 31 32 33 34 35 36 37 38 39 40 41 42 43 44 45 46 47 48 49 50
020
ASUS42 KCAE 040810
RWRCAE
REGIONAL WEATHER ROUNDUP
NATIONAL WEATHER SERVICE COLUMBIA SC
300 AM EST SUN DEC 04 2016

NOTE: "FAIR" INDICATES FEW OR NO CLOUDS BELOW 12,000 FEET WITH NO
SIGNIFICANT WEATHER AND/OR OBSTRUCTIONS TO VISIBILITY.

NOT ALL STATIONS ARE QUALITY CONTROLLED BY THE NATIONAL
WEATHER SERVICE. USE DATA WITH CAUTION...ESPECIALLY
DEWPOINT OBSERVATIONS.

SCZ001>056-GAZ040-063>065-077-040900-
...UPSTATE SOUTH CAROLINA...

CITY           SKY/WX    TMP DP  RH WIND       PRES   REMARKS
ANDERSON       LGT RAIN  45  42  89 NE6       30.22F
LIBERTY        RAIN      43  42  96 E3        30.22F
SPARTANBURG    LGT RAIN  43  41  93 CALM      30.25R
CLEMSON        LGT RAIN  46  43  89 NE5       30.23F FOG
GREENVILLE     RAIN      46  41  82 CALM      30.24S
GREENWOOD      LGT RAIN  45  43  93 N6        30.25R
GREER          LGT RAIN  44  42  93 CALM      30.23R FOG
ROCK HILL      LGT RAIN  43  41  93 CALM      30.25R
CHESTER        DRIZZLE   43  41  93 CALM      30.26R
LAURENS        LGT RAIN  45  45 100 CALM      30.24S


...CENTRAL SOUTH CAROLINA...

CITY           SKY/WX    TMP DP  RH WIND       PRES   REMARKS
COLUMBIA APT   CLOUDY    49  44  83 CALM      30.24F
COLUMBIA OWENS CLOUDY    49  44  83 CALM      30.26S
MCENTIRE ANGB  MOCLDY    47  45  93 CALM      30.24S
ORANGEBURG     CLOUDY    49  42  77 NE3       30.25R
SUMTER SHAW    CLOUDY    47  42  81 CALM      30.23R
NEWBERRY       DRIZZLE   45  45 100 N3        30.27R
AIKEN          CLOUDY    45  41  87 E6        30.25F
LANCASTER      MOSUNNY   45  45 100 MISG      30.25F
WINNSBORO      DRIZZLE   45  45 100 CALM      30.24S


...EASTERN AND COASTAL SOUTH CAROLINA...

CITY           SKY/WX    TMP DP  RH WIND       PRES   REMARKS
MYRTLE BEACH   CLOUDY    50  34  53 N5        30.26R
N MYRTLE BCH   CLOUDY    48  35  60 NE7       30.23R
CONWAY         CLOUDY    45  41  87 CALM      30.25R
MARION         CLOUDY    45  37  76 CALM      30.25R
HARTSVILLE     CLOUDY    45  39  81 CALM      30.25R
FLORENCE       CLOUDY    47  42  83 CALM      30.25R
DARLINGTON     CLOUDY    46  43  89 N3        30.26R
CHARLESTON APT CLOUDY    51  37  58 N5        30.23S
WALTERBORO     CLOUDY    50  43  76 CALM      30.25R
BEAUFORT       CLOUDY    53  41  63 NE8       30.21S
HILTON HEAD    PTCLDY    57  43  58 VRB7G13   30.20S


...EASTERN GEORGIA...

CITY           SKY/WX    TMP DP  RH WIND       PRES   REMARKS
AUGUSTA BUSH F CLOUDY    50  43  77 NE5       30.21F
AUGUSTA DANIEL CLOUDY    50  41  71 E6        30.21F
THOMSON        CLOUDY    49  48  99 CALM      30.24F
WASHINGTON     DRIZZLE   46  46 100 E3        30.19F
CLAXTON        PTSUNNY   52  46  77 N3        30.19R
SYLVANIA       CLOUDY   N/A N/A N/A NE6       30.22S
STATESBORO     CLOUDY    52  44  73 NE3       30.21R
SAVANNAH       CLOUDY    53  43  68 NE7       30.19F


...SOUTHERN NORTH CAROLINA...

CITY           SKY/WX    TMP DP  RH WIND       PRES   REMARKS
CHARLOTTE      LGT RAIN  45  34  65 NE5       30.25R
MONROE         LGT RAIN  43  36  76 NE5       30.24R
WADESBORO      LGT RAIN  44  41  90 CALM      30.26R
RUTHERFORDTON  LGT RAIN  42  40  93 CALM      30.25S
ASHEVILLE      LGT RAIN  41  38  89 CALM      30.20F

$$




USA.gov is the U.S. government's official web portal to all federal, state and local government web resources and services.